Location: Dillon
(41.1766°N, 107.0923°W)
Time: 20:05:13
(UTC+00:00)

DIWATA 2B (PO-101) - Pass Details

Date: 29 June 2022
Orbit: 583 x 599 km, 98.0° (Epoch: 11 August)

Event Time Altitude Azimuth Distance (km) Brightness Sun altitude
Exits shadow 09:25:44 42° 218° (SW) 856 ? -18.5°
Maximum altitude 09:26:40 51° 260° (W) 756 ? -18.4°
Drops below altitude 10° 09:30:47 10° 337° (NNW) 1,947 ? -18.0°
Sets 09:33:01 0° 342° (NNW) 2,854 ? -17.8°
